Zurück zum Katalog

COSMOS 2251 DEB

AktivLEO
NORAD 33758·DEBRIS·🇷🇺 Russia

Gestartet Jun 16, 1993 von Plesetsk Cosmodrome

Loading…

Nächste Überflüge (nächste 24 Stunden)

TLE

AktuellSource: Space-Track

Epoche: Sep 14, 2026, 10:49 UTC

1 33758U 93036F   26257.45125076  .00001914  00000-0  46785-3 0  9997
2 33758  74.0263  54.9107 0016286  57.2109 323.7802 14.53180025923089

Verfolge COSMOS 2251 DEB in Echtzeit mit AllMySat

Download on the App Store